This demonstration page uses our WeatherBlox Daily Observations layout. Learn more.

Left ArrowRight Arrow

39.51506, -84.39828

Hourly Observations for November 16, 2021

Temp ( °F °C ) Dew Point ( °F °C ) Humidity (%) Winds ( mph kmh ) Pressure ( in mb ) Visibility ( mi km ) Precip ( " mm )
12:15 am 00:15 Cloudy 37 2.7 33 0.3 84 84 Calm 30.16 1021 10 16 0.00 0.00
12:35 am 00:35 Cloudy 36 2.4 33 0.7 89 89 Calm 30.15 1021 10 16 0.00 0.00
12:55 am 00:55 Cloudy 37 2.6 33 0.4 86 86 E 3 6 30.15 1021 10 16 0.00 0.00
1:15 am 01:15 Cloudy 38 3.1 33 0.7 84 84 ESE 3 6 30.14 1021 10 16 0.00 0.00
1:35 am 01:35 Cloudy 37 3 33 0.8 86 86 Calm 30.15 1021 10 16 0.00 0.00
1:55 am 01:55 Cloudy 37 2.9 34 0.9 87 87 ENE 3 6 30.14 1021 10 16 0.00 0.00
2:15 am 02:15 Cloudy 37 3 34 1.1 87 87 ENE 5 7 30.14 1021 10 16 0.00 0.00
2:35 am 02:35 Cloudy 37 3 34 0.9 86 86 Calm 30.14 1021 10 16 0.00 0.00
2:55 am 02:55 Cloudy 37 3 33 0.7 85 85 Calm 30.14 1021 10 16 0.00 0.00
3:15 am 03:15 Cloudy 37 2.8 34 0.9 87 87 Calm 30.14 1021 10 16 0.00 0.00
3:35 am 03:35 Cloudy 37 2.9 35 1.6 91 91 E 3 6 30.14 1021 10 16 0.00 0.00
3:55 am 03:55 Cloudy 37 2.6 34 1 89 89 ENE 5 7 30.13 1020 10 16 0.00 0.00
4:15 am 04:15 Mostly Cloudy 35 1.6 33 0.5 93 93 NE 6 9 30.13 1020 10 16 0.00 0.00
4:35 am 04:35 Partly Cloudy 35 1.8 33 0.7 93 93 NE 3 6 30.14 1021 10 16 0.00 0.00
4:55 am 04:55 Clear 33 0.3 32 -0.2 96 96 NE 3 6 30.14 1021 10 16 0.00 0.00
5:15 am 05:15 Clear 32 0.2 32 -0.1 98 98 NE 5 7 30.14 1021 10 16 0.00 0.00
5:35 am 05:35 Clear 31 -0.5 31 -0.7 99 99 NNE 3 6 30.15 1021 10 16 0.00 0.00
5:55 am 05:55 Clear 32 0 31 -0.3 98 98 NNE 5 7 30.16 1021 10 16 0.00 0.00
6:15 am 06:15 Clear 32 -0.2 31 -0.6 97 97 NNE 3 6 30.16 1021 10 16 0.00 0.00
6:35 am 06:35 Clear 32 -0.2 31 -0.5 98 98 NE 3 6 30.16 1021 10 16 0.00 0.00
6:55 am 06:55 Clear 30 -0.9 30 -1.2 98 98 NNE 3 6 30.16 1021 10 16 0.00 0.00
7:15 am 07:15 Clear 31 -0.6 30 -0.9 98 98 NE 5 7 30.17 1022 10 16 0.00 0.00
7:35 am 07:35 Sunny 32 0.1 31 -0.3 97 97 ENE 3 6 30.17 1022 10 16 0.00 0.00
7:55 am 07:55 Sunny 33 0.4 32 0.1 98 98 Calm 30.17 1022 10 16 0.00 0.00
8:15 am 08:15 Sunny 33 0.3 32 -0.1 97 97 Calm 30.17 1022 10 16 0.00 0.00
8:35 am 08:35 Sunny 33 0.7 33 0.4 98 98 Calm 30.18 1022 10 16 0.00 0.00
8:55 am 08:55 Sunny 37 2.7 35 1.8 94 94 Calm 30.17 1022 10 16 0.00 0.00
9:15 am 09:15 Sunny 38 3.4 34 1.2 86 86 ENE 3 6 30.18 1022 10 16 0.00 0.00
9:35 am 09:35 Sunny 40 4.4 35 1.6 82 82 ENE 5 7 30.17 1022 10 16 0.00 0.00
9:55 am 09:55 Sunny 41 5 34 1.1 76 76 E 5 7 30.17 1022 10 16 0.00 0.00
10:15 am 10:15 Sunny 42 5.8 34 0.9 71 71 E 5 7 30.18 1022 10 16 0.00 0.00
10:35 am 10:35 Sunny 43 6.3 33 0.7 68 68 ENE 7 11 30.18 1022 10 16 0.00 0.00
10:55 am 10:55 Sunny 44 6.9 33 0.5 64 64 E 3 6 30.17 1022 10 16 0.00 0.00
11:15 am 11:15 Sunny 46 7.9 33 0.4 59 59 ESE 6 9 30.15 1021 10 16 0.00 0.00
11:35 am 11:35 Sunny 48 8.8 33 0.4 56 56 E 6 9 30.15 1021 10 16 0.00 0.00
11:55 am 11:55 Sunny 49 9.3 33 0.4 54 54 E 8 13 30.14 1021 10 16 0.00 0.00
12:15 pm 12:15 Sunny 50 9.8 34 1.1 55 55 E 6 9 30.13 1020 10 16 0.00 0.00
12:35 pm 12:35 Sunny 51 10.5 34 0.9 52 52 E 5 7 30.12 1020 10 16 0.00 0.00
12:55 pm 12:55 Sunny 51 10.5 34 1 52 52 E 7 11 30.11 1020 10 16 0.00 0.00
1:15 pm 13:15 Sunny 51 10.4 34 1.2 53 53 ESE 6 9 30.10 1019 10 16 0.00 0.00
1:35 pm 13:35 Sunny 51 10.7 33 0.8 51 51 ESE 6 9 30.09 1019 10 16 0.00 0.00
1:55 pm 13:55 Sunny 53 11.5 35 1.5 51 51 SE 7 11 30.09 1019 10 16 0.00 0.00
2:15 pm 14:15 Sunny 53 11.8 35 1.6 50 50 ESE 8 13 30.07 1018 10 16 0.00 0.00
2:35 pm 14:35 Sunny 54 12.4 35 1.8 49 49 SSE 7 11 30.07 1018 10 16 0.00 0.00
2:55 pm 14:55 Sunny 54 12.4 35 1.4 47 47 SE 7 11 30.06 1018 10 16 0.00 0.00
3:15 pm 15:15 Sunny 55 12.7 35 1.6 47 47 SE 7 11 30.07 1018 10 16 0.00 0.00
3:35 pm 15:35 Sunny 54 12.3 36 2.3 51 51 SE 7 11 30.07 1018 10 16 0.00 0.00
3:55 pm 15:55 Sunny 54 12.4 36 2.2 50 50 SE 7 11 30.07 1018 10 16 0.00 0.00
4:15 pm 16:15 Sunny 54 12.4 36 2.4 51 51 SE 6 9 30.07 1018 10 16 0.00 0.00
4:35 pm 16:35 Sunny 54 12.1 37 2.6 53 53 ESE 6 9 30.07 1018 10 16 0.00 0.00
4:55 pm 16:55 Sunny 53 11.4 37 2.5 55 55 SE 6 9 30.08 1018 10 16 0.00 0.00
5:15 pm 17:15 Sunny 50 10.1 37 2.6 60 60 E 5 7 30.08 1019 10 16 0.00 0.00
5:35 pm 17:35 Clear 47 8.4 37 2.8 68 68 E 6 9 30.07 1018 10 16 0.00 0.00
5:55 pm 17:55 Clear 46 7.6 38 3.1 73 73 E 5 7 30.08 1018 10 16 0.00 0.00
6:15 pm 18:15 Clear 44 6.4 39 4 85 85 N 3 6 30.07 1018 10 16 0.00 0.00
6:35 pm 18:35 Clear 43 5.9 39 3.9 87 87 Calm 30.07 1018 10 16 0.00 0.00
6:55 pm 18:55 Clear 41 4.9 38 3.6 91 91 N 3 6 30.07 1018 10 16 0.00 0.00
7:15 pm 19:15 Clear 40 4.5 38 3.6 94 94 N 3 6 30.08 1019 10 16 0.00 0.00
7:35 pm 19:35 Clear 41 5 38 3.4 90 90 N 3 6 30.07 1018 10 16 0.00 0.00
7:55 pm 19:55 Clear 40 4.4 38 3.3 93 93 NNE 5 7 30.08 1019 10 16 0.00 0.00
8:15 pm 20:15 Clear 41 5.2 39 4.1 93 93 NE 3 6 30.07 1018 10 16 0.00 0.00
8:35 pm 20:35 Clear 40 4.3 38 3.3 93 93 Calm 30.07 1018 10 16 0.00 0.00
8:55 pm 20:55 Clear 39 4.1 38 3.1 93 93 Calm 30.06 1018 10 16 0.00 0.00
9:15 pm 21:15 Clear 39 3.7 37 3 95 95 Calm 30.07 1018 10 16 0.00 0.00
9:35 pm 21:35 Clear 38 3.6 38 3.2 97 97 Calm 30.07 1018 10 16 0.00 0.00
9:55 pm 21:55 Clear 38 3.3 38 3.1 99 99 Calm 30.07 1018 10 16 0.00 0.00
10:15 pm 22:15 Clear 38 3.5 38 3.2 98 98 WNW 3 6 30.06 1018 10 16 0.00 0.00
10:35 pm 22:35 Clear 40 4.4 39 3.9 97 97 SW 3 6 30.04 1017 10 16 0.00 0.00
10:55 pm 22:55 Mostly Cloudy 42 5.8 40 4.7 93 93 W 3 6 30.04 1017 10 16 0.00 0.00
11:15 pm 23:15 Mostly Cloudy 45 7.1 41 5.2 88 88 WSW 3 6 30.04 1017 10 16 0.00 0.00
11:35 pm 23:35 Mostly Cloudy 44 6.6 42 5.3 92 92 Calm 30.04 1017 10 16 0.00 0.00
11:55 pm 23:55 Cloudy 44 6.7 42 5.6 93 93 W 3 6 30.04 1017 10 16 0.00 0.00

Powered by AerisWeather